This is the latest recevied weather packets stored in our database for station/object WX7FGZ-3. If no packets are shown the sender has not sent any weather packets the latest 10 day(s).
| Time | Temp. | Humidity | Pressure | Rain* | Wind** | Luminosity | Snow |
|---|---|---|---|---|---|---|---|
| 1777562929 | 12.78° C | 26% | 1011.8 hPa | 0 mm | - | - | - |
| 1777561727 | 12.22° C | 26% | 1011.9 hPa | 0 mm | - | - | - |
| 1777561427 | 11.67° C | 26% | 1012.1 hPa | 0 mm | - | - | - |
| 1777561127 | 11.67° C | 26% | 1012 hPa | 0 mm | - | - | - |
| 1777560827 | 11.11° C | 27% | 1012.2 hPa | 0 mm | - | - | - |
| 1777560527 | 11.11° C | 27% | 1012.2 hPa | 0 mm | - | - | - |
| 1777559926 | 10.56° C | 29% | 1012.3 hPa | 0 mm | - | - | - |
| 1777559626 | 10° C | 33% | 1012.5 hPa | 0 mm | - | - | - |
| 1777559325 | 9.44° C | 33% | 1012.4 hPa | 0 mm | - | - | - |
| 1777559025 | 8.33° C | 36% | 1012.4 hPa | 0 mm | - | - | - |
| 1777558425 | 7.22° C | 38% | 1012.5 hPa | 0 mm | - | - | - |
| 1777558124 | 6.11° C | 40% | 1012.6 hPa | 0 mm | - | - | - |
| 1777557824 | 5.56° C | 40% | 1012.6 hPa | 0 mm | - | - | - |
| 1777557524 | 5° C | 40% | 1012.6 hPa | 0 mm | - | - | - |
| 1777557224 | 4.44° C | 41% | 1012.6 hPa | 0 mm | - | - | - |
| 1777556623 | 3.33° C | 44% | 1012.6 hPa | 0 mm | - | - | - |
| 1777556322 | 2.78° C | 46% | 1012.5 hPa | 0 mm | - | - | - |
| 1777556023 | 2.22° C | 48% | 1012.5 hPa | 0 mm | - | - | - |
| 1777555722 | 1.67° C | 49% | 1012.6 hPa | 0 mm | - | - | - |
| 1777555421 | 1.11° C | 50% | 1012.5 hPa | 0 mm | - | - | - |
| 1777555121 | 0.56° C | 50% | 1012.5 hPa | 0 mm | - | - | - |
| 1777554821 | 0° C | 51% | 1012.4 hPa | 0 mm | - | - | - |
| 1777554521 | 0° C | 51% | 1012.4 hPa | 0 mm | - | - | - |
| 1777553920 | -0.56° C | 52% | 1012.2 hPa | 0 mm | - | - | - |
| 1777553620 | -0.56° C | 52% | 1012.2 hPa | 0 mm | - | - | - |
* Rain latest hour (hover to see other rain measurements)
** Current wind speed in m/s (hover to see current wind gust speed)